SITRO-AIS 27

Last updated on Thu Nov 21 2024 00:03:40 GMT+0000 (Coordinated Universal Time)

1 59068U 24039T 24325.59576892 .00006613 00000+0 59253-3 0 9995 2 59068 95.3876 203.4577 0163463 162.8702 197.8130 14.86216411 39314
UTC large
Height (km)
Speed (km/s)
/
Latitude / Longitude
Inclination (degrees)
Orbital Period (minutes)
Azimuth
Elevation
Range (km)
Doppler Factor

Next 0 passes for location: London (51.5072 / 0.1276)

Sorry there are no passes over London.